This is the latest recevied weather packets stored in our database for station/object K8FJG-13. If no packets are shown the sender has not sent any weather packets the latest 10 day(s).
| Time | Temp. | Humidity | Pressure | Rain* | Wind** | Luminosity | Snow |
|---|---|---|---|---|---|---|---|
| 1777579927 | 10.56° C | 60% | 969.2 hPa | - | - | - | - |
| 1777579324 | 10° C | 60% | 969.2 hPa | - | - | - | - |
| 1777578721 | 10° C | 57% | 969.3 hPa | - | - | - | - |
| 1777578117 | 10° C | 59% | 969.3 hPa | - | - | - | - |
| 1777577514 | 10.56° C | 61% | 969.3 hPa | - | - | - | - |
| 1777576911 | 10.56° C | 62% | 969.3 hPa | - | - | - | - |
| 1777576308 | 10° C | 62% | 969.4 hPa | - | - | - | - |
| 1777575705 | 10° C | 60% | 969.4 hPa | - | - | - | - |
| 1777575101 | 10° C | 63% | 969.5 hPa | - | - | - | - |
| 1777574498 | 9.44° C | 62% | 969.5 hPa | - | - | - | - |
| 1777573895 | 9.44° C | 65% | 969.5 hPa | - | - | - | - |
| 1777573292 | 8.89° C | 67% | 969.6 hPa | - | - | - | - |
| 1777572689 | 8.89° C | 69% | 969.6 hPa | - | - | - | - |
| 1777572086 | 9.44° C | 66% | 969.6 hPa | - | - | - | - |
| 1777571483 | 8.33° C | 68% | 969.5 hPa | - | - | - | - |
| 1777570879 | 7.78° C | 71% | 969.6 hPa | - | - | - | - |
| 1777570276 | 7.78° C | 71% | 969.8 hPa | - | - | - | - |
| 1777569673 | 6.67° C | 75% | 969.7 hPa | - | - | - | - |
| 1777569070 | 7.22° C | 74% | 969.7 hPa | - | - | - | - |
| 1777568467 | 7.22° C | 73% | 969.7 hPa | - | - | - | - |
| 1777567864 | 7.78° C | 71% | 969.6 hPa | - | - | - | - |
| 1777567261 | 8.33° C | 70% | 969.5 hPa | - | - | - | - |
| 1777566657 | 8.33° C | 71% | 969.6 hPa | - | - | - | - |
| 1777566054 | 7.78° C | 71% | 969.7 hPa | - | - | - | - |
| 1777565451 | 7.22° C | 73% | 969.5 hPa | - | - | - | - |
* Rain since midnight (hover to see other rain measurements)
** Current wind speed in m/s (hover to see current wind gust speed)